GW4270 Weather Reports


time (UTC)temp
C
wind
direction
speed
KPH
gust
KPH
rain 1hr
cm
rain 24hr
cm
rain mn
cm
humidity
%
barometer
mb
20260507201522 16 178 9.7 17.7 0.00 0.48 0.05 58 1008.1
20260507201012 16 186 6.4 16.1 0.00 0.48 0.05 57 1008.2
20260507200507 16 178 4.8 16.1 0.00 0.48 0.05 58 1008.2
20260507200004 16 257 8.0 16.1 0.00 0.48 0.05 58 1008.2
20260507195507 16 238 4.8 17.7 0.00 0.48 0.05 60 1008.2
20260507195004 16 124 8.0 17.7 0.00 0.48 0.05 60 1008.2
20260507194509 16 288 8.0 20.9 0.00 0.48 0.05 59 1008.5
20260507194004 16 209 6.4 20.9 0.00 0.48 0.05 58 1008.6
20260507193505 16 239 9.7 19.3 0.00 0.48 0.05 59 1008.7
20260507193028 16 194 4.8 19.3 0.00 0.48 0.05 60 1008.7
20260507192506 16 126 9.7 19.3 0.00 0.48 0.05 58 1008.6
20260507192007 16 131 8.0 12.9 0.00 0.48 0.05 54 1008.5
20260507191529 16 211 4.8 11.3 0.00 0.48 0.05 55 1008.5
20260507191005 16 196 6.4 17.7 0.00 0.48 0.05 56 1008.6
20260507190508 16 211 9.7 17.7 0.00 0.48 0.05 54 1008.6
20260507190024 16 140 6.4 12.9 0.00 0.48 0.05 53 1008.7
20260507185509 17 159 1.6 6.4 0.00 0.48 0.05 52 1008.9
20260507185007 16 96 1.6 8.0 0.00 0.48 0.05 47 1008.8
20260507184526 17 324 1.6 9.7 0.00 0.48 0.05 46 1008.9
20260507184005 17 360 4.8 9.7 0.00 0.48 0.05 47 1008.9
20260507183514 17 316 3.2 8.0 0.00 0.48 0.05 45 1008.9
20260507183012 17 319 1.6 8.0 0.00 0.48 0.05 46 1008.9
20260507182506 17 281 1.6 4.8 0.00 0.48 0.05 45 1008.9
20260507182007 17 184 1.6 12.9 0.00 0.48 0.05 50 1009.1
20260507181519 17 30 3.2 16.1 0.00 0.48 0.05 46 1009.1
20260507181014 17 304 3.2 16.1 0.00 0.48 0.05 47 1009.1
20260507180506 17 190 4.8 12.9 0.00 0.48 0.05 45 1009.1
20260507180025 17 32 3.2 16.1 0.00 0.48 0.05 43 1009.3
20260507175508 17 248 4.8 16.1 0.00 0.48 0.05 47 1009.3
20260507175009 17 336 1.6 12.9 0.00 0.48 0.05 46 1009.3
20260507174528 17 360 4.8 16.1 0.00 0.48 0.05 48 1009.3
20260507174007 17 257 4.8 16.1 0.00 0.48 0.05 46 1009.5
20260507173508 16 260 6.4 12.9 0.00 0.48 0.05 47 1009.6
20260507173032 16 129 1.6 12.9 0.00 0.48 0.05 47 1009.6
20260507172506 16 315 4.8 12.9 0.00 0.48 0.05 51 1009.7
20260507172006 16 134 8.0 12.9 0.00 0.48 0.05 48 1009.8
20260507171512 16 104 4.8 11.3 0.00 0.48 0.05 50 1009.9
20260507171009 16 159 3.2 11.3 0.00 0.48 0.05 51 1010.0
20260507170508 16 137 6.4 9.7 0.00 0.48 0.05 50 1010.1
20260507170018 16 326 1.6 8.0 0.00 0.48 0.05 50 1010.2
20260507165509 16 182 4.8 11.3 0.00 0.48 0.05 50 1010.2
20260507165011 16 196 6.4 11.3 0.00 0.48 0.05 48 1010.4
20260507164525 15 143 3.2 8.0 0.00 0.48 0.05 53 1010.6
20260507164008 14 194 3.2 8.0 0.00 0.48 0.05 51 1010.8
20260507163508 15 66 3.2 8.0 0.00 0.48 0.05 49 1010.8
20260507163023 15 60 1.6 9.7 0.00 0.48 0.05 52 1010.9
20260507162508 15 305 4.8 9.7 0.00 0.48 0.05 55 1011.1
20260507162010 15 32 3.2 9.7 0.00 0.48 0.05 54 1011.0
20260507161527 15 44 1.6 9.7 0.00 0.48 0.05 51 1011.0
20260507161008 14 15 3.2 9.7 0.00 0.48 0.05 52 1011.2
20260507160504 13 57 1.6 8.0 0.00 0.48 0.05 57 1011.1
20260507160017 13 344 3.2 6.4 0.00 0.48 0.05 51 1011.3
20260507155506 13 311 1.6 11.3 0.00 0.48 0.05 51 1011.4
20260507155009 13 74 6.4 11.3 0.00 0.48 0.05 53 1011.5
20260507154521 13 22 3.2 6.4 0.00 0.48 0.05 53 1011.3
20260507154012 13 109 3.2 6.4 0.00 0.48 0.05 53 1011.4
20260507153509 13 352 1.6 8.0 0.00 0.48 0.05 53 1011.4
20260507153025 13 73 3.2 8.0 0.00 0.48 0.05 56 1011.7
20260507152513 12 15 4.8 8.0 0.00 0.48 0.05 55 1011.4
20260507152010 12 24 3.2 12.9 0.00 0.48 0.05 53 1011.7
20260507151527 12 48 3.2 12.9 0.00 0.48 0.05 55 1011.6
20260507151008 12 32 3.2 11.3 0.00 0.48 0.05 53 1011.8
20260507150510 12 231 4.8 11.3 0.00 0.48 0.05 52 1011.8
20260507150028 12 213 1.6 8.0 0.00 0.48 0.05 58 1011.8
20260507145511 12 352 1.6 14.5 0.00 0.48 0.05 54 1011.9
20260507145010 12 350 1.6 14.5 0.00 0.48 0.05 56 1012.1
20260507144525 12 306 4.8 12.9 0.00 0.48 0.05 54 1012.1
20260507144010 12 307 4.8 12.9 0.00 0.48 0.05 57 1012.1
20260507143509 12 234 4.8 12.9 0.00 0.48 0.05 58 1012.4
20260507143030 12 321 6.4 12.9 0.00 0.48 0.05 55 1012.4
20260507142506 12 332 3.2 8.0 0.00 0.51 0.05 58 1012.3
20260507142007 11 106 3.2 9.7 0.00 0.51 0.05 59 1012.3
20260507141525 12 338 3.2 16.1 0.00 0.51 0.05 57 1012.4
20260507141007 11 32 4.8 16.1 0.00 0.51 0.05 56 1012.4
20260507140512 11 336 4.8 9.7 0.00 0.51 0.05 57 1012.3
20260507140031 11 300 3.2 6.4 0.00 0.53 0.05 59 1012.4
20260507135510 11 5 0.0 8.0 0.00 0.53 0.05 62 1012.4
20260507135004 11 305 1.6 12.9 0.00 0.53 0.05 61 1012.5
20260507134528 11 44 3.2 12.9 0.00 0.53 0.05 60 1012.5
20260507134005 11 37 3.2 11.3 0.00 0.56 0.05 61 1012.6
20260507133507 11 9 3.2 12.9 0.00 0.56 0.05 61 1012.6
20260507133024 11 29 4.8 12.9 0.00 0.56 0.05 61 1012.9
20260507132506 11 69 1.6 11.3 0.00 0.56 0.05 63 1012.9
20260507132008 11 321 3.2 8.0 0.00 0.58 0.05 67 1013.0
20260507131531 11 5 0.0 3.2 0.00 0.58 0.05 70 1012.9
20260507131004 11 38 0.0 4.8 0.00 0.58 0.05 68 1013.1
20260507130505 11 94 0.0 4.8 0.00 0.58 0.05 69 1012.9
20260507130011 11 41 1.6 11.3 0.00 0.61 0.05 69 1012.7
20260507125505 11 5 3.2 11.3 0.00 0.61 0.05 68 1012.7
20260507125005 11 352 3.2 11.3 0.00 0.64 0.05 69 1012.5
20260507124517 11 5 3.2 11.3 0.00 0.66 0.05 70 1012.5
20260507124006 11 50 3.2 8.0 0.00 0.69 0.05 70 1012.6
20260507123512 11 334 1.6 8.0 0.00 0.71 0.05 70 1012.7
20260507123019 11 350 0.0 9.7 0.00 0.76 0.05 72 1012.5
20260507122508 11 40 1.6 9.7 0.00 0.79 0.05 71 1012.5
20260507122013 11 352 3.2 8.0 0.00 0.79 0.05 71 1012.7
20260507121524 11 201 0.0 4.8 0.00 0.81 0.05 72 1012.5
20260507121012 11 125 0.0 8.0 0.00 0.81 0.05 72 1012.4
20260507120506 11 55 4.8 8.0 0.00 0.81 0.05 73 1012.3
20260507120027 11 23 1.6 9.7 0.00 0.81 0.05 73 1012.5
20260507115510 11 24 0.0 9.7 0.00 0.81 0.05 73 1012.4
20260507115008 11 31 4.8 9.7 0.00 0.81 0.05 74 1012.3
20260507114511 11 123 3.2 9.7 0.00 0.81 0.05 74 1012.4
20260507114006 11 293 1.6 6.4 0.00 0.81 0.05 75 1012.4
20260507113510 11 37 3.2 8.0 0.00 0.84 0.05 78 1012.3
20260507113016 11 63 4.8 8.0 0.00 0.86 0.05 79 1012.2
20260507112514 11 38 3.2 4.8 0.00 0.86 0.05 80 1012.1
20260507112006 11 27 1.6 4.8 0.00 0.89 0.05 81 1012.0
20260507111533 11 52 1.6 4.8 0.00 0.91 0.05 80 1012.0
20260507111009 11 5 0.0 4.8 0.00 0.94 0.05 81 1011.9
20260507110510 11 318 1.6 4.8 0.00 0.94 0.05 81 1011.9
20260507110026 11 342 1.6 6.4 0.00 0.94 0.05 81 1011.8
20260507105503 11 41 3.2 6.4 0.00 0.97 0.05 80 1011.7
20260507105008 11 221 0.0 3.2 0.00 0.97 0.05 81 1011.9
20260507104511 11 95 0.0 3.2 0.00 0.97 0.05 83 1011.8
20260507104007 11 26 0.0 3.2 0.00 0.97 0.05 82 1012.0
20260507103505 11 108 0.0 3.2 0.00 0.97 0.05 82 1011.9
20260507103016 11 116 1.6 3.2 0.00 0.97 0.05 82 1011.7
20260507102506 11 80 0.0 3.2 0.00 0.97 0.05 84 1011.7
20260507102007 11 80 0.0 3.2 0.00 0.97 0.05 80 1011.7
20260507101509 11 102 1.6 3.2 0.00 0.97 0.05 77 1011.6
20260507101006 11 47 0.0 3.2 0.00 0.97 0.05 78 1011.7
20260507100503 11 26 0.0 8.0 0.00 0.97 0.05 77 1011.7
20260507100007 11 26 0.0 8.0 0.00 0.97 0.05 77 1011.6
20260507095504 11 23 1.6 11.3 0.00 0.97 0.05 77 1011.5
20260507095004 11 360 1.6 12.9 0.00 0.97 0.05 77 1011.4
20260507094509 11 9 3.2 12.9 0.00 0.97 0.05 77 1011.3
20260507094005 11 40 1.6 6.4 0.00 0.97 0.05 78 1011.3
20260507093506 11 15 1.6 6.4 0.00 0.97 0.05 77 1011.4
20260507093015 11 15 0.0 6.4 0.00 0.97 0.05 78 1011.2
20260507092507 11 12 1.6 6.4 0.00 0.97 0.05 78 1011.4
20260507092007 11 352 0.0 8.0 0.00 0.97 0.05 77 1011.4
20260507091524 11 42 1.6 8.0 0.00 0.97 0.05 77 1011.3
20260507091008 11 23 1.6 11.3 0.00 0.97 0.05 77 1011.4
20260507090509 11 13 4.8 11.3 0.00 0.97 0.05 77 1011.2
20260507090032 11 304 3.2 11.3 0.00 0.97 0.05 79 1011.0
20260507085503 11 38 1.6 11.3 0.00 0.97 0.05 80 1011.0
20260507085003 11 327 3.2 6.4 0.00 0.97 0.05 79 1011.0
20260507084506 11 38 1.6 6.4 0.00 0.97 0.05 79 1011.0
20260507084004 11 42 0.0 3.2 0.00 0.97 0.05 78 1011.0
20260507083504 11 46 0.0 3.2 0.00 0.97 0.05 77 1011.2
20260507083011 11 55 0.0 3.2 0.00 0.97 0.05 78 1011.3
20260507082505 11 174 0.0 4.8 0.00 0.97 0.05 78 1011.2
20260507082007 11 344 0.0 8.0 0.00 0.97 0.05 79 1011.1
20260507081516 11 159 1.6 9.7 0.00 0.97 0.05 78 1011.1
20260507081008 11 277 3.2 9.7 0.00 0.97 0.05 79 1011.2
20260507080508 11 328 3.2 8.0 0.00 0.97 0.05 80 1010.9
20260507080024 11 312 3.2 12.9 0.00 0.97 0.05 80 1010.9
20260507075508 11 343 6.4 12.9 0.00 0.97 0.05 79 1011.0
20260507075009 11 9 1.6 8.0 0.00 0.97 0.05 81 1010.9
20260507074523 11 298 1.6 9.7 0.00 0.97 0.05 80 1010.8
20260507074006 11 345 3.2 9.7 0.00 0.97 0.05 80 1010.5
20260507073504 11 22 3.2 6.4 0.00 0.97 0.05 81 1010.5
20260507073011 11 334 3.2 8.0 0.00 0.97 0.05 81 1010.5
20260507072505 11 360 1.6 8.0 0.00 0.97 0.05 81 1010.6
20260507072004 11 98 0.0 14.5 0.00 0.97 0.05 82 1010.6
20260507071514 11 62 3.2 14.5 0.00 0.97 0.05 80 1010.6
20260507071005 11 5 3.2 14.5 0.03 0.97 0.05 81 1010.5
20260507070508 11 329 3.2 14.5 0.03 0.97 0.05 83 1010.3
20260507070024 11 329 0.0 3.2 0.03 0.97 0.05 84 1010.5
20260507065507 11 32 0.0 12.9 0.03 0.97 0.05 83 1010.8
20260507065009 11 339 3.2 12.9 0.03 0.97 0.05 82 1010.6
20260507064525 11 30 4.8 11.3 0.03 0.97 0.05 83 1010.6
20260507064009 11 5 4.8 11.3 0.03 0.97 0.05 83 1010.5
20260507063509 11 317 3.2 9.7 0.03 0.97 0.05 83 1010.5
20260507063026 11 343 4.8 12.9 0.03 0.97 0.05 84 1010.6
20260507062508 11 39 3.2 14.5 0.03 0.97 0.05 84 1010.7
20260507062009 11 351 4.8 14.5 0.03 0.97 0.05 85 1010.7
20260507061513 11 5 3.2 14.5 0.03 0.97 0.05 85 1010.8
20260507061005 12 352 4.8 14.5 0.00 0.94 0.03 85 1010.7
20260507060506 12 55 0.0 12.9 0.03 0.94 0.03 85 1011.1
20260507060016 12 302 6.4 12.9 0.03 0.94 0.03 84 1011.2
20260507055507 12 287 1.6 6.4 0.03 0.94 0.03 85 1011.1
20260507055009 12 336 1.6 9.7 0.03 0.94 0.03 86 1010.7
20260507054530 12 5 3.2 9.7 0.03 0.94 0.03 86 1010.6
20260507054006 12 44 3.2 14.5 0.03 0.94 0.03 86 1010.7
20260507053509 12 277 3.2 16.1 0.03 0.94 0.03 87 1010.9
20260507053024 12 90 0.0 16.1 0.03 0.94 0.03 87 1010.7
20260507052506 12 113 4.8 11.3 0.03 0.94 0.03 87 1010.8
20260507052009 12 352 3.2 11.3 0.03 0.94 0.03 87 1010.7
20260507051526 12 36 4.8 9.7 0.03 0.94 0.03 87 1010.6
20260507051008 12 28 3.2 8.0 0.03 0.94 0.03 88 1010.6
20260507050513 12 34 3.2 8.0 0.00 0.91 0.00 88 1010.6
20260507050032 12 49 1.6 8.0 0.00 0.91 0.00 89 1010.6
20260507045506 12 318 3.2 6.4 0.00 0.91 0.00 89 1010.8
20260507045005 12 317 0.0 6.4 0.00 0.91 0.00 89 1010.3
20260507044517 12 339 1.6 6.4 0.00 0.91 0.00 88 1009.9
20260507044008 12 141 1.6 8.0 0.00 0.91 0.00 88 1009.4
20260507043505 13 30 1.6 8.0 0.00 0.91 0.00 89 1010.0
20260507043024 13 38 3.2 6.4 0.00 0.91 0.00 89 1010.4
20260507042508 13 351 1.6 4.8 0.00 0.91 0.00 88 1010.4
20260507042005 13 24 1.6 4.8 0.00 0.91 0.00 89 1010.2
20260507041508 13 9 0.0 6.4 0.00 0.91 0.00 88 1010.2
20260507041004 13 329 0.0 12.9 0.00 0.91 0.00 87 1010.0
20260507040505 13 26 1.6 12.9 0.00 0.91 0.00 89 1010.4
20260507040009 13 14 3.2 8.0 0.00 0.91 0.00 90 1010.6
20260507035504 13 286 3.2 6.4 0.00 0.91 0.91 90 1010.7
20260507035004 13 13 0.0 3.2 0.00 0.91 0.91 90 1010.6
20260507034507 13 344 0.0 3.2 0.00 0.91 0.91 90 1010.7
20260507034004 13 296 0.0 6.4 0.00 0.91 0.91 89 1010.7
20260507033507 13 315 1.6 6.4 0.00 0.91 0.91 89 1010.3
20260507033008 13 44 1.6 4.8 0.03 0.91 0.91 88 1010.0
20260507032504 13 56 1.6 4.8 0.03 0.91 0.91 88 1009.9
20260507032003 13 315 1.6 4.8 0.05 0.91 0.91 90 1010.0
20260507031504 14 352 0.0 9.7 0.05 0.91 0.91 90 1010.1
20260507031004 14 330 3.2 9.7 0.05 0.91 0.91 90 1010.2
20260507030504 14 347 0.0 8.0 0.05 0.91 0.91 91 1010.1
20260507030008 14 5 0.0 6.4 0.05 0.91 0.91 91 1010.0
20260507025507 14 343 0.0 6.4 0.05 0.91 0.91 91 1010.1
20260507025004 14 14 1.6 4.8 0.05 0.91 0.91 91 1010.1
20260507024512 14 309 0.0 4.8 0.05 0.91 0.91 91 1010.0
20260507024006 15 290 1.6 6.4 0.05 0.91 0.91 90 1009.9
20260507023504 15 352 3.2 8.0 0.05 0.91 0.91 90 1009.6
20260507023010 15 50 3.2 11.3 0.03 0.89 0.89 90 1009.4
20260507022505 15 112 3.2 11.3 0.03 0.89 0.89 91 1009.4
20260507022006 15 295 3.2 8.0 0.00 0.86 0.86 92 1010.0
20260507021512 15 5 3.2 8.0 0.00 0.86 0.86 93 1009.5
20260507021005 15 330 0.0 4.8 0.00 0.86 0.86 93 1009.6
20260507020507 16 352 3.2 4.8 0.00 0.86 0.86 93 1009.6
20260507020008 16 345 0.0 3.2 0.00 0.86 0.86 93 1009.7
20260507015503 16 309 0.0 3.2 0.00 0.86 0.86 93 1009.6
20260507015004 16 309 1.6 3.2 0.00 0.86 0.86 93 1009.4
20260507014519 16 14 0.0 3.2 0.00 0.86 0.86 93 1009.1
20260507014006 16 5 0.0 3.2 0.00 0.86 0.86 92 1009.0
20260507013505 16 49 0.0 3.2 0.00 0.86 0.86 92 1009.2
20260507013030 16 107 1.6 3.2 0.00 0.86 0.86 92 1009.2
20260507012505 16 14 0.0 3.2 0.00 0.86 0.86 91 1009.3
20260507012006 16 14 1.6 6.4 0.00 0.86 0.86 91 1009.3
20260507011514 16 5 3.2 6.4 0.00 0.86 0.86 91 1009.2
20260507011003 16 50 0.0 9.7 0.00 0.86 0.86 91 1009.2
20260507010503 16 214 4.8 9.7 0.00 0.86 0.86 92 1009.8
20260507010024 16 292 1.6 4.8 0.00 0.86 0.86 93 1009.4
20260507005505 17 352 1.6 3.2 0.00 0.86 0.86 92 1009.2
20260507005007 17 36 1.6 3.2 0.00 0.86 0.86 93 1009.4
20260507004507 17 296 0.0 4.8 0.03 0.86 0.86 93 1009.6
20260507004005 17 268 0.0 4.8 0.08 0.86 0.86 93 1009.4
20260507003506 17 310 0.0 3.2 0.15 0.86 0.86 93 1009.2
20260507003015 17 313 0.0 3.2 0.18 0.86 0.86 93 1009.0
20260507002510 17 352 0.0 3.2 0.18 0.86 0.86 93 1009.0
20260507002008 17 352 1.6 6.4 0.18 0.86 0.86 93 1008.9
20260507001515 17 330 0.0 6.4 0.28 0.86 0.86 93 1008.8
20260507001007 17 304 0.0 4.8 0.38 0.86 0.86 93 1008.6
20260507000507 17 56 1.6 4.8 0.38 0.86 0.86 93 1008.9
20260507000014 17 41 1.6 3.2 0.38 0.86 0.86 93 1008.7
20260506235508 17 344 0.0 3.2 0.38 0.86 0.86 93 1008.7
20260506235007 17 202 0.0 3.2 0.38 0.86 0.86 92 1008.7
20260506234518 17 323 0.0 3.2 0.36 0.84 0.84 92 1008.6
20260506234011 17 329 0.0 3.2 0.30 0.79 0.79 91 1008.3
20260506233507 17 29 1.6 3.2 0.23 0.71 0.71 91 1008.3
20260506233017 17 46 0.0 3.2 0.20 0.69 0.69 91 1008.1
20260506232505 17 46 0.0 6.4 0.20 0.69 0.69 89 1008.2
20260506232006 18 51 1.6 6.4 0.20 0.69 0.69 88 1008.3
20260506231517 18 12 3.2 4.8 0.10 0.58 0.58 86 1008.2
20260506231006 18 352 0.0 3.2 0.00 0.48 0.48 84 1007.9
20260506230507 19 331 1.6 3.2 0.00 0.48 0.48 83 1008.0
20260506230020 19 254 0.0 4.8 0.00 0.48 0.48 80 1007.9
20260506225506 20 217 1.6 4.8 0.00 0.48 0.48 80 1007.9
20260506225006 20 225 0.0 3.2 0.00 0.48 0.48 80 1007.7
20260506224520 20 230 0.0 6.4 0.00 0.48 0.48 80 1007.6
20260506224007 20 204 1.6 8.0 0.00 0.48 0.48 79 1007.8
20260506223508 20 144 1.6 8.0 0.00 0.48 0.48 79 1007.7
20260506223022 20 167 3.2 6.4 0.00 0.48 0.48 79 1007.6
20260506222511 20 169 0.0 8.0 0.00 0.48 0.48 79 1007.6
20260506222012 20 209 1.6 8.0 0.00 0.48 0.48 79 1007.7
20260506221521 20 204 1.6 6.4 0.00 0.48 0.48 79 1007.7
20260506221011 20 194 3.2 11.3 0.00 0.48 0.48 79 1007.8
20260506220507 20 215 1.6 11.3 0.00 0.48 0.48 79 1007.7
20260506220017 20 191 4.8 11.3 0.00 0.48 0.48 79 1007.7
20260506215504 20 227 3.2 9.7 0.00 0.48 0.48 79 1007.6
20260506215003 20 171 3.2 9.7 0.00 0.48 0.48 78 1007.6
20260506214508 20 285 1.6 9.7 0.00 0.48 0.48 79 1007.5
20260506214003 20 192 3.2 8.0 0.00 0.48 0.48 79 1007.5
20260506213504 20 180 1.6 9.7 0.00 0.48 0.48 79 1007.6
20260506213004 20 200 3.2 9.7 0.00 0.48 0.48 79 1007.6
20260506212505 20 240 4.8 14.5 0.00 0.48 0.48 78 1007.6
20260506212004 20 210 4.8 14.5 0.00 0.48 0.48 78 1007.5
20260506211510 20 218 1.6 9.7 0.00 0.48 0.48 78 1007.6
20260506211004 20 242 3.2 9.7 0.00 0.48 0.48 77 1007.6
20260506210506 20 230 3.2 11.3 0.00 0.48 0.48 78 1007.5
20260506210006 20 182 4.8 11.3 0.00 0.48 0.48 79 1007.4
20260506205502 20 234 3.2 9.7 0.00 0.48 0.48 79 1007.4
20260506205002 20 213 4.8 11.3 0.00 0.48 0.48 79 1007.3
20260506204504 20 210 4.8 11.3 0.00 0.48 0.48 79 1007.4
20260506204010 20 184 4.8 11.3 0.00 0.48 0.48 79 1007.3
20260506203503 20 127 6.4 12.9 0.00 0.48 0.48 79 1007.4
20260506203004 20 190 6.4 16.1 0.00 0.48 0.48 78 1007.3
20260506202508 20 259 4.8 16.1 0.00 0.48 0.48 79 1007.2
20260506202004 20 223 4.8 14.5 0.00 0.48 0.48 79 1007.1